Location: Breungeshain
(50.5000°N, 9.2000°E)
Time: 09:47:07
(UTC+00:00)

ISS - Pass Details

Date: 26 May 2017
Orbit: 402 x 409 km, 51.6° (Epoch: 24 May)

Event Time Altitude Azimuth Distance (km) Brightness Sun altitude
Rises 22:56:11 0° 276° (W) 2,333 0.2 -18.0°
Reaches altitude 10° 22:58:17 10° 279° (W) 1,471 -0.8 -18.0°
Maximum altitude 23:01:35 71° 4° (N) 434 -3.6 -18.1°
Drops below altitude 10° 23:04:51 10° 89° (E) 1,466 -1.0 -18.1°
Sets 23:06:57 0° 92° (E) 2,324 0.0 -18.2°
